Location: Saratoga Springs
(43.0831°N, 73.7850°W)
Time: 11:06:54
(UTC-04:00)

SR - Pass Details

Date: 19 April 2024
Orbit: 579 x 859 km, 66.7° (Epoch: 27 May)

Event Time Altitude Azimuth Distance (km) Brightness Sun altitude
Exits shadow 03:23:41 56° 295° (WNW) 926 ? -25.7°
Maximum altitude 03:23:52 56° 304° (NW) 921 ? -25.7°
Drops below altitude 10° 03:28:58 10° 23° (NNE) 2,249 ? -25.1°
Sets 03:31:17 0° 28° (NNE) 3,128 ? -24.8°
